Content
SEND FEEDBACK

Daily
Averages
Monthly
Summary
French Polynesia

HITIAA, FRENCH POLYNESIA


Home > Oceania > French Polynesia
Elevation: 7 feet     Latitude: 17 33S     Longitude: 149 37W

WEATHER
 
SELECT A DAY
Number of Records: 214,224;   Date Range: 6/30/96 - 10/21/14
 
SHARE

PRINT THIS DATA

[ ← Previous Day ]
WEATHER ALMANAC - AUGUST 27, 2014
[ Next Day → ]
[ °C ]   °F
Weather ElementAverageHighLow
Temperature78.6 °F84.2 °F (2:30 pm)73 °F (5:00 am)
Dewpoint68.5 °F71.6 °F (12:30 pm)64.4 °F (9:00 am)
Humidity70.7 %88 % (8:00 pm)53 % (5:00 pm)
Barometer29.93 in29.98 in (12:30 am)29.89 in (3:30 pm)
Wind Speed7.9 mph15 mph (2:24 pm)
Weather ElementAverage
Visibility8.1 mi
Wind DirectionESE (96.3 °)

Weather ElementTotal
Precipitation---
Cooling Degree Days13.6 (Base 65)
Growing Degree Days28.6 (Base 50)
Averaged from 56 records on August 27, 2014
WEATHER CONDITIONS BREAKOUT
WIND DIRECTION BREAKOUT
WEATHER BY HOUR - AUGUST 27, 2014
[ °C ]   °F
Local TimeTemperatureDewpointHumidityBarometerVisibilityWind DirectionWind SpeedGust SpeedPrecipitationEventsConditions
12:00 AM77.0 °F66.2 °F69 %29.95 in6.2 miEast (90°)3.5 mphMostly Cloudy
12:30 AM77.0 °F66.2 °F69 %29.92 in6.2 miVariable2.3 mphMostly Cloudy
1:00 AM77.0 °F69.8 °F78 %29.92 in6.2 miNW (310°)11.5 mphMostly Cloudy
1:30 AM75.2 °F69.8 °F83 %29.92 in6.2 miNNW (330°)12.7 mphMostly Cloudy
2:00 AM75.0 °F70.0 °F79 %29.93 in9.0 miNW (320°)15.0 mphOvercast
2:00 AM75.2 °F69.8 °F83 %29.92 in6.2 miNW (320°)15.0 mphMostly Cloudy
2:30 AM77.0 °F69.8 °F78 %29.92 in6.2 miNW (320°)10.4 mphMostly Cloudy
3:00 AM77.0 °F69.8 °F78 %29.92 in6.2 miNW (310°)8.1 mphMostly Cloudy
3:30 AM75.2 °F69.8 °F83 %29.92 in6.2 miNW (320°)11.5 mphOvercast
4:00 AM75.2 °F69.8 °F83 %29.92 in6.2 miENE (60°)8.1 mphOvercast
4:30 AM73.4 °F69.8 °F88 %29.92 in6.2 miNNE (20°)12.7 mphMostly Cloudy
5:00 AM73.0 °F68.0 °F80 %29.94 in37.0 miENE (70°)6.9 mphClear
5:00 AM73.4 °F68.0 °F83 %29.92 in6.2 miENE (70°)6.9 mphOvercast
5:30 AM73.4 °F68.0 °F83 %29.92 in6.2 miNE (50°)4.6 mphOvercast
6:00 AM73.4 °F68.0 °F83 %29.95 in6.2 miNorth (360°)5.8 mphMostly Cloudy
6:30 AM75.2 °F69.8 °F83 %29.95 in6.2 miNNE (20°)8.1 mphScattered Clouds
7:00 AM75.2 °F69.8 °F83 %29.95 in6.2 miENE (60°)4.6 mphScattered Clouds
7:30 AM77.0 °F68.0 °F74 %29.95 in6.2 miNE (40°)8.1 mphScattered Clouds
8:00 AM79.0 °F69.0 °F64 %29.97 in19.0 miNE (40°)8.1 mphPartly Cloudy
8:00 AM78.8 °F69.8 °F74 %29.95 in6.2 miNE (40°)8.1 mphPartly Cloudy
8:30 AM80.6 °F68.0 °F65 %29.95 in6.2 miENE (60°)8.1 mphPartly Cloudy
9:00 AM82.4 °F69.8 °F66 %29.95 in6.2 miNE (50°)11.5 mphPartly Cloudy
9:30 AM82.4 °F68.0 °F62 %29.98 in6.2 miNE (40°)11.5 mphPartly Cloudy
10:00 AM82.4 °F69.8 °F66 %29.98 in6.2 miNNE (30°)10.4 mphScattered Clouds
10:30 AM82.4 °F69.8 °F66 %29.98 in6.2 miNNE (30°)10.4 mphPartly Cloudy
11:00 AM84.0 °F70.0 °F54 %29.97 in19.0 miNNE (30°)11.5 mphPartly Cloudy
11:00 AM84.2 °F69.8 °F62 %29.95 in6.2 miNNE (30°)11.5 mphPartly Cloudy
11:30 AM82.4 °F69.8 °F66 %29.95 in6.2 miNNE (30°)9.2 mphPartly Cloudy
12:00 PM84.2 °F69.8 °F62 %29.92 in6.2 miNNE (30°)11.5 mphPartly Cloudy
12:30 PM82.4 °F69.8 °F66 %29.92 in6.2 miNNE (30°)11.5 mphScattered Clouds
1:00 PM84.2 °F71.6 °F66 %29.89 in6.2 miNNE (30°)12.7 mphPartly Cloudy
1:30 PM84.2 °F71.6 °F66 %29.89 in6.2 miNNE (30°)10.4 mphPartly Cloudy
2:00 PM84.0 °F70.0 °F55 %29.89 in19.0 miNNE (30°)10.4 mphScattered Clouds
2:00 PM84.2 °F69.8 °F62 %29.89 in6.2 miNNE (30°)10.4 mphPartly Cloudy
2:30 PM84.2 °F71.6 °F66 %29.89 in6.2 miNNE (30°)10.4 mphMostly Cloudy
3:00 PM82.4 °F68.0 °F62 %29.89 in6.2 miNorth (10°)9.2 mphMostly Cloudy
3:30 PM82.4 °F68.0 °F62 %29.89 in6.2 miNNE (30°)6.9 mphMostly Cloudy
4:00 PM80.6 °F68.0 °F65 %29.89 in6.2 miNNE (20°)6.9 mphMostly Cloudy
4:30 PM80.6 °F68.0 °F65 %29.89 in6.2 miNNE (30°)4.6 mphScattered Clouds
5:00 PM82.0 °F68.0 °F53 %29.91 in19.0 miNorth (10°)4.6 mphPartly Cloudy
5:00 PM82.4 °F68.0 °F62 %29.89 in6.2 miNorth (10°)4.6 mphPartly Cloudy
5:30 PM80.6 °F66.2 °F61 %29.89 in6.2 miNNE (20°)4.6 mphPartly Cloudy
6:00 PM80.6 °F66.2 °F61 %29.89 in6.2 miNNE (30°)5.8 mphPartly Cloudy
6:30 PM78.8 °F66.2 °F65 %29.92 in6.2 miNNE (20°)3.5 mphPartly Cloudy
7:00 PM78.8 °F68.0 °F69 %29.92 in6.2 miVariable2.3 mphScattered Clouds
7:30 PM77.0 °F68.0 °F74 %29.92 in6.2 miEast (100°)3.5 mphScattered Clouds
8:00 PM77.0 °F67.0 °F65 %29.94 in16.0 miEast (100°)2.3 mphScattered Clouds
8:00 PM77.0 °F68.0 °F74 %29.92 in6.2 miEast (100°)2.3 mphPartly Cloudy
8:30 PM77.0 °F68.0 °F74 %29.95 in6.2 miCalmPartly Cloudy
9:00 PM75.2 °F66.2 °F73 %29.92 in6.2 miSSE (160°)2.3 mphPartly Cloudy
9:30 PM75.2 °F64.4 °F69 %29.92 in6.2 miSouth (180°)8.1 mphPartly Cloudy
10:00 PM75.2 °F64.4 °F69 %29.92 in6.2 miSouth (170°)5.8 mphPartly Cloudy
10:30 PM73.4 °F66.2 °F78 %29.92 in6.2 miSouth (180°)5.8 mphPartly Cloudy
11:00 PM74.0 °F67.0 °F74 %29.94 in16.0 miSouth (190°)9.2 mphScattered Clouds
11:00 PM75.2 °F68.0 °F78 %29.92 in6.2 miSouth (190°)9.2 mphPartly Cloudy
11:30 PM75.2 °F68.0 °F78 %29.92 in6.2 miSouth (180°)5.8 mphPartly Cloudy
Hourly data recorded from NTAA, located miles away from Hitiaa, French Polynesia







STORIES FROM OUR PARTNERS